TimeEST,TemperatureF,Dew PointF,Humidity,Sea Level PressureIn,VisibilityMPH,Wind Direction,Wind SpeedMPH,Gust SpeedMPH,PrecipitationIn,Events,Conditions,WindDirDegrees,DateUTC
12:53 AM,48.9,30.9,50,30.30,10.0,South,9.2,-,N/A,,Clear,180,2011-11-06 04:53:00
1:53 AM,46.0,32.0,58,30.32,10.0,South,6.9,-,N/A,,Clear,190,2011-11-06 05:53:00
1:53 AM,45.0,32.0,60,30.33,10.0,Calm,Calm,-,N/A,,Clear,0,2011-11-06 06:53:00
2:53 AM,42.1,33.1,70,30.33,10.0,Calm,Calm,-,N/A,,Clear,0,2011-11-06 07:53:00
3:53 AM,39.9,33.1,77,30.34,10.0,Calm,Calm,-,N/A,,Clear,0,2011-11-06 08:53:00
4:53 AM,39.9,33.1,77,30.36,10.0,Calm,Calm,-,N/A,,Clear,0,2011-11-06 09:53:00
5:53 AM,37.9,33.1,83,30.38,10.0,Calm,Calm,-,N/A,,Clear,0,2011-11-06 10:53:00
6:53 AM,37.0,33.1,86,30.39,10.0,Calm,Calm,-,N/A,,Partly Cloudy,0,2011-11-06 11:53:00
7:53 AM,37.9,34.0,86,30.41,10.0,Calm,Calm,-,N/A,,Scattered Clouds,0,2011-11-06 12:53:00
8:53 AM,44.1,37.0,76,30.43,10.0,Calm,Calm,-,N/A,,Scattered Clouds,0,2011-11-06 13:53:00
9:53 AM,51.1,36.0,56,30.43,10.0,Calm,Calm,-,N/A,,Mostly Cloudy,0,2011-11-06 14:53:00
10:53 AM,54.0,37.9,55,30.43,10.0,Calm,Calm,-,N/A,,Mostly Cloudy,0,2011-11-06 15:53:00
11:53 AM,59.0,41.0,51,30.41,10.0,SW,4.6,-,N/A,,Scattered Clouds,220,2011-11-06 16:53:00
12:53 PM,61.0,42.1,50,30.37,10.0,Variable,5.8,-,N/A,,Partly Cloudy,0,2011-11-06 17:53:00
1:53 PM,64.0,42.1,45,30.34,10.0,SSE,5.8,-,N/A,,Partly Cloudy,150,2011-11-06 18:53:00
2:53 PM,64.9,43.0,45,30.31,10.0,South,10.4,-,N/A,,Clear,170,2011-11-06 19:53:00
3:53 PM,66.0,44.1,45,30.30,10.0,SSE,9.2,-,N/A,,Scattered Clouds,160,2011-11-06 20:53:00
4:53 PM,64.9,44.1,47,30.30,10.0,South,5.8,-,N/A,,Scattered Clouds,170,2011-11-06 21:53:00
5:53 PM,61.0,44.1,54,30.31,10.0,SE,3.5,-,N/A,,Scattered Clouds,130,2011-11-06 22:53:00
6:53 PM,57.0,45.0,64,30.32,10.0,Calm,Calm,-,N/A,,Clear,0,2011-11-06 23:53:00
7:53 PM,53.1,45.0,74,30.34,10.0,Calm,Calm,-,N/A,,Clear,0,2011-11-07 00:53:00
8:53 PM,50.0,45.0,83,30.35,10.0,Calm,Calm,-,N/A,,Clear,0,2011-11-07 01:53:00
9:53 PM,48.9,44.1,83,30.36,10.0,Calm,Calm,-,N/A,,Clear,0,2011-11-07 02:53:00
10:53 PM,48.0,44.1,86,30.37,10.0,Calm,Calm,-,N/A,,Clear,0,2011-11-07 03:53:00